This is the latest recevied weather packets stored in our database for station/object N0FDH. If no packets are shown the sender has not sent any weather packets the latest 1 day(s).
| Time | Temp. | Humidity | Pressure | Rain* | Wind** | Luminosity | Snow |
|---|---|---|---|---|---|---|---|
| 1778018037 | 7.78° C | 46% | 1009.6 hPa | 0 mm | 2.68 m/s, 341° | 141 W/m² | - |
| 1778017734 | 7.78° C | 49% | 1009.6 hPa | 0 mm | 3.13 m/s, 339° | 156 W/m² | - |
| 1778017432 | 7.78° C | 49% | 1009.6 hPa | 0 mm | 3.58 m/s, 310° | 115 W/m² | - |
| 1778017129 | 8.33° C | 47% | 1009.4 hPa | 0 mm | 2.68 m/s, 242° | 119 W/m² | - |
| 1778016827 | 8.33° C | 45% | 1009.5 hPa | 0 mm | 0.89 m/s, 326° | 184 W/m² | - |
| 1778016522 | 7.78° C | 45% | 1009.4 hPa | 0 mm | 4.92 m/s, 250° | 171 W/m² | - |
| 1778016220 | 7.78° C | 46% | 1009.5 hPa | 0 mm | 2.24 m/s, 328° | 125 W/m² | - |
| 1778015916 | 7.78° C | 48% | 1009.5 hPa | 0 mm | 2.24 m/s, 323° | 143 W/m² | - |
| 1778015614 | 7.78° C | 47% | 1009.5 hPa | 0 mm | 1.79 m/s, 324° | 100 W/m² | - |
| 1778015310 | 7.78° C | 47% | 1009.4 hPa | 0 mm | 1.79 m/s, 317° | 132 W/m² | - |
| 1778015007 | 7.78° C | 48% | 1009.6 hPa | 0 mm | 3.13 m/s, 322° | 172 W/m² | - |
| 1778014703 | 7.78° C | 47% | 1009.6 hPa | 0 mm | 4.92 m/s, 270° | 173 W/m² | - |
| 1778014402 | 7.78° C | 44% | 1009.4 hPa | 0 mm | 0.89 m/s, 280° | 172 W/m² | - |
| 1778014098 | 7.22° C | 46% | 1009.5 hPa | 0 mm | 3.13 m/s, 255° | 148 W/m² | - |
| 1778013796 | 7.22° C | 49% | 1009.7 hPa | 0 mm | 3.58 m/s, 240° | 166 W/m² | - |
| 1778013494 | 7.22° C | 47% | 1009.6 hPa | 0 mm | 2.68 m/s, 249° | 128 W/m² | - |
| 1778013190 | 7.78° C | 46% | 1009.6 hPa | 0 mm | 4.02 m/s, 289° | 163 W/m² | - |
| 1778012886 | 7.22° C | 46% | 1009.6 hPa | 0 mm | 3.13 m/s, 246° | 190 W/m² | - |
| 1778012582 | 7.78° C | 51% | 1009.6 hPa | 0 mm | 2.68 m/s, 244° | 229 W/m² | - |
| 1778012279 | 7.22° C | 45% | 1009.7 hPa | 0 mm | 1.34 m/s, 304° | 188 W/m² | - |
| 1778011976 | 7.22° C | 48% | 1009.7 hPa | 0 mm | 1.34 m/s, 263° | 197 W/m² | - |
| 1778011675 | 7.22° C | 51% | 1009.7 hPa | 0 mm | 1.79 m/s, 171° | 210 W/m² | - |
| 1778011372 | 7.22° C | 49% | 1009.6 hPa | 0 mm | 4.02 m/s, 278° | 146 W/m² | - |
| 1778011067 | 6.67° C | 47% | 1009.8 hPa | 0 mm | 2.24 m/s, 278° | 116 W/m² | - |
| 1778010765 | 7.22° C | 47% | 1009.6 hPa | 0 mm | 3.58 m/s, 314° | 165 W/m² | - |
* Rain latest hour (hover to see other rain measurements)
** Current wind speed in m/s (hover to see current wind gust speed)